HI8S-13 Weather Reports


Display with metric or nautical units.
time (UTC)temp
F
wind
direction
speed
MPH
gust
MPH
rain 1hr
in
rain 24hr
in
rain mn
in
humidity
%
barometer
mb
20260503044328 0 0.0 0.0 0.00 0.00 0.00 1016.9
20260503043835 0 0.0 0.0 0.00 0.00 0.00 1017.0
20260503043418 0 0.0 0.0 0.00 0.00 0.00 1017.0
20260503042904 0 0.0 0.0 0.00 0.00 0.00 1017.1
20260503042328 0 0.0 0.0 0.00 0.00 0.00 1017.2
20260503041832 0 0.0 0.0 0.00 0.00 0.00 1017.1
20260503041336 0 0.0 0.0 0.00 0.00 0.00 1017.2
20260503040919 0 0.0 0.0 0.00 0.00 0.00 1017.3
20260503035837 0 0.0 0.0 0.00 0.00 0.00 1017.2
20260503035339 0 0.0 0.0 0.00 0.00 0.00 1017.4
20260503034828 0 0.0 0.0 0.00 0.00 0.00 1017.4
20260503033326 80 173 0.0 6.0 0.00 0.00 0.00 76 1017.4
20260503032831 81 131 0.0 4.0 0.00 0.00 0.00 77 1017.5
20260503032327 81 189 1.0 8.0 0.00 0.00 0.00 77 1017.4
20260503031830 81 149 2.0 5.0 0.00 0.00 0.00 77 1017.4
20260503031334 81 165 1.0 4.0 0.00 0.00 0.00 77 1017.3
20260503030830 81 156 0.0 5.0 0.00 0.00 0.00 78 1017.3
20260503030325 81 101 2.0 6.0 0.00 0.00 0.00 77 1017.2
20260503025830 81 178 2.0 6.0 0.00 0.00 0.00 77 1017.2
20260503025328 81 182 1.0 6.0 0.00 0.00 0.00 78 1017.1
20260503024834 81 150 2.0 6.0 0.00 0.00 0.00 78 1017.1
20260503024338 81 172 1.0 6.0 0.00 0.00 0.00 78 1017.1
20260503023325 81 145 2.0 5.0 0.00 0.00 0.00 78 1017.0
20260503022830 81 184 2.0 7.0 0.00 0.00 0.00 78 1017.0
20260503022327 81 165 1.0 7.0 0.00 0.00 0.00 78 1017.0
20260503021831 81 228 1.0 5.0 0.00 0.00 0.00 78 1016.8
20260503021334 82 159 1.0 4.0 0.00 0.00 0.00 79 1016.8
20260503020829 82 165 0.0 5.0 0.00 0.00 0.00 79 1016.8
20260503020334 82 157 1.0 6.0 0.00 0.00 0.00 79 1016.7
20260503015829 82 136 3.0 6.0 0.00 0.00 0.00 78 1016.7
20260503015327 82 160 2.0 6.0 0.00 0.00 0.00 78 1016.6
20260503014832 82 193 3.0 8.0 0.00 0.00 0.00 77 1016.7
20260503014328 82 210 3.0 8.0 0.00 0.00 0.00 77 1016.6
20260503013832 82 165 1.0 5.0 0.00 0.00 0.00 77 1016.5
20260503013327 82 177 2.0 9.0 0.00 0.00 0.00 77 1016.5
20260503012833 82 188 2.0 9.0 0.00 0.00 0.00 78 1016.3
20260503012326 82 213 3.0 7.0 0.00 0.00 0.00 78 1016.3
20260503011831 82 165 1.0 7.0 0.00 0.00 0.00 78 1016.3
20260503011326 82 169 3.0 9.0 0.00 0.00 0.00 78 1016.2
20260503010829 82 191 2.0 8.0 0.00 0.00 0.00 78 1016.1
20260503010326 82 173 3.0 8.0 0.00 0.00 0.00 78 1016.0
20260503005830 82 172 3.0 8.0 0.00 0.00 0.00 79 1015.9
20260503005334 82 176 1.0 8.0 0.00 0.00 0.00 79 1015.9
20260503004830 82 167 4.0 8.0 0.00 0.00 0.00 78 1015.8
20260503004328 82 195 3.0 8.0 0.00 0.00 0.00 79 1015.8
20260503003830 82 158 2.0 7.0 0.00 0.00 0.00 79 1015.8
20260503003326 82 193 2.0 9.0 0.00 0.00 0.00 78 1015.7
20260503002834 82 179 3.0 9.0 0.00 0.00 0.00 78 1015.6
20260503002327 82 211 2.0 8.0 0.00 0.00 0.00 78 1015.6
20260503001831 82 172 4.0 8.0 0.00 0.00 0.00 78 1015.5
20260503001326 82 44 4.0 9.0 0.00 0.00 0.00 78 1015.4
20260503000831 82 166 2.0 9.0 0.00 0.00 0.00 77 1015.4
20260503000327 82 159 3.0 7.0 0.00 0.00 0.00 77 1015.3
20260502235833 82 130 4.0 7.0 0.00 0.00 0.00 77 1015.3
20260502235329 82 167 2.0 7.0 0.00 0.00 0.00 77 1015.1
20260502234826 82 189 3.0 8.0 0.00 0.00 0.00 77 1015.0
20260502234331 82 218 5.0 8.0 0.00 0.00 0.00 77 1014.9
20260502233827 82 141 2.0 10.0 0.00 0.00 0.00 78 1014.8
20260502233332 82 172 4.0 10.0 0.00 0.00 0.00 78 1014.8
20260502232828 82 175 2.0 10.0 0.00 0.00 0.00 79 1014.8
20260502232334 83 177 4.0 10.0 0.00 0.01 0.00 78 1014.8
20260502231830 83 187 0.0 9.0 0.00 0.01 0.00 78 1014.6
20260502231327 83 182 3.0 9.0 0.00 0.01 0.00 78 1014.6
20260502230833 83 186 2.0 7.0 0.00 0.01 0.00 78 1014.6
20260502230329 83 188 2.0 8.0 0.00 0.01 0.00 78 1014.5
20260502225826 83 147 3.0 8.0 0.00 0.01 0.00 78 1014.5
20260502225332 83 165 2.0 9.0 0.00 0.01 0.00 78 1014.5
20260502224829 83 191 2.0 9.0 0.00 0.01 0.00 77 1014.5
20260502224326 84 116 2.0 10.0 0.00 0.01 0.00 76 1014.4
20260502223831 84 128 4.0 10.0 0.00 0.01 0.00 75 1014.4
20260502223328 84 181 4.0 9.0 0.00 0.01 0.00 74 1014.4
20260502222826 84 163 4.0 7.0 0.00 0.01 0.00 75 1014.3
20260502222331 84 206 3.0 8.0 0.00 0.01 0.00 75 1014.4
20260502221827 84 190 5.0 9.0 0.00 0.01 0.00 74 1014.3
20260502221332 84 219 6.0 9.0 0.00 0.01 0.00 74 1014.3
20260502220829 85 143 3.0 10.0 0.00 0.01 0.00 75 1014.2
20260502220334 85 231 7.0 10.0 0.00 0.01 0.00 74 1014.3
20260502215829 85 174 4.0 10.0 0.00 0.01 0.00 75 1014.2
20260502215329 85 165 6.0 10.0 0.00 0.01 0.00 74 1014.2
20260502214833 85 139 4.0 10.0 0.00 0.01 0.00 74 1014.1
20260502214329 85 162 5.0 11.0 0.00 0.01 0.00 74 1014.0
20260502213832 86 270 4.0 10.0 0.00 0.01 0.00 73 1014.0
20260502213328 86 185 3.0 8.0 0.00 0.01 0.00 72 1014.0
20260502212833 86 220 4.0 8.0 0.00 0.01 0.00 72 1014.0
20260502212327 86 124 2.0 8.0 0.00 0.01 0.00 73 1013.8
20260502211832 86 224 2.0 7.0 0.00 0.01 0.00 73 1013.8
20260502211331 85 148 2.0 9.0 0.00 0.01 0.00 74 1013.8
20260502210828 85 176 4.0 9.0 0.00 0.01 0.00 73 1013.8
20260502210333 86 167 4.0 8.0 0.00 0.01 0.00 74 1013.8
20260502205828 85 124 5.0 10.0 0.00 0.01 0.00 75 1013.8
20260502205333 85 191 6.0 12.0 0.00 0.01 0.00 74 1013.8
20260502204828 85 108 5.0 12.0 0.00 0.01 0.00 74 1013.8
20260502204326 86 182 6.0 10.0 0.00 0.01 0.00 73 1013.8
20260502203829 86 176 6.0 10.0 0.00 0.01 0.00 73 1013.8
20260502203334 86 131 4.0 12.0 0.00 0.01 0.00 74 1013.8
20260502202829 86 165 5.0 12.0 0.00 0.01 0.00 73 1013.9
20260502202333 86 187 6.0 11.0 0.00 0.01 0.00 72 1013.8
20260502201838 86 171 5.0 11.0 0.00 0.01 0.00 72 1013.8
20260502201345 86 167 6.0 10.0 0.00 0.01 0.00 72 1013.9
20260502200829 86 219 5.0 10.0 0.00 0.01 0.00 72 1013.9
20260502200328 86 185 6.0 10.0 0.00 0.01 0.00 72 1013.9
20260502195829 86 174 6.0 13.0 0.00 0.01 0.00 72 1013.9
20260502195334 86 160 6.0 13.0 0.00 0.01 0.00 72 1014.0
20260502194919 86 158 5.0 10.0 0.00 0.01 0.00 72 1014.0
20260502194327 86 181 5.0 12.0 0.00 0.01 0.00 72 1014.1
20260502193831 86 196 4.0 12.0 0.00 0.01 0.00 73 1014.0
20260502193327 86 184 7.0 12.0 0.00 0.01 0.00 72 1014.2
20260502192832 86 149 5.0 11.0 0.00 0.01 0.00 71 1014.3
20260502192327 86 182 6.0 11.0 0.00 0.01 0.00 71 1014.3
20260502191832 86 172 6.0 11.0 0.00 0.01 0.00 70 1014.3
20260502191329 87 160 5.0 10.0 0.00 0.01 0.00 70 1014.3
20260502190825 87 180 5.0 10.0 0.00 0.01 0.00 69 1014.3
20260502190328 86 138 5.0 10.0 0.00 0.01 0.00 68 1014.3
20260502185834 86 155 5.0 11.0 0.00 0.01 0.00 69 1014.4
20260502185330 86 186 6.0 14.0 0.00 0.01 0.00 69 1014.4
20260502184833 86 172 7.0 11.0 0.00 0.01 0.00 68 1014.4
20260502184328 86 204 5.0 11.0 0.00 0.01 0.00 69 1014.5
20260502183826 86 176 6.0 12.0 0.00 0.01 0.00 70 1014.5
20260502183330 86 206 5.0 12.0 0.00 0.01 0.00 72 1014.6
20260502182827 86 178 6.0 14.0 0.00 0.01 0.00 71 1014.7
20260502182333 86 168 6.0 14.0 0.00 0.01 0.00 71 1014.7
20260502181830 86 174 7.0 15.0 0.00 0.01 0.00 71 1014.8
20260502181327 86 203 6.0 15.0 0.00 0.01 0.00 71 1014.9
20260502180834 86 158 6.0 11.0 0.00 0.01 0.00 71 1014.8
20260502180329 86 167 5.0 13.0 0.00 0.01 0.00 72 1015.0
20260502170332 87 181 6.0 13.0 0.00 0.01 0.00 69 1015.5
20260502164327 87 198 6.0 12.0 0.00 0.01 0.00 67 1015.6
20260502163830 87 169 5.0 16.0 0.00 0.01 0.00 67 1015.7
20260502163326 87 224 5.0 16.0 0.00 0.01 0.00 65 1015.8
20260502162831 88 186 4.0 12.0 0.00 0.01 0.00 67 1015.8
20260502162325 87 186 6.0 13.0 0.00 0.01 0.00 68 1015.9
20260502161830 87 179 7.0 13.0 0.00 0.01 0.00 69 1015.9
20260502161329 86 231 5.0 15.0 0.00 0.01 0.00 70 1015.9
20260502160826 86 174 8.0 15.0 0.00 0.01 0.00 70 1015.9
20260502160331 86 148 7.0 15.0 0.00 0.01 0.00 72 1016.0
20260502152325 87 165 5.0 10.0 0.00 0.01 0.00 72 1016.0
20260502151831 87 151 4.0 8.0 0.00 0.01 0.00 71 1016.0
20260502151327 86 212 2.0 8.0 0.00 0.01 0.00 72 1016.0
20260502150833 86 145 3.0 8.0 0.00 0.01 0.00 72 1016.0
20260502150329 86 179 1.0 6.0 0.00 0.01 0.00 73 1016.1
20260502130326 82 49 1.0 5.0 0.00 0.01 0.00 77 1016.0
20260502123329 81 50 0.0 4.0 0.00 0.01 0.00 80 1015.9
20260502122834 81 27 0.0 3.0 0.00 0.01 0.00 80 1015.8
20260502122329 80 17 0.0 4.0 0.00 0.01 0.00 81 1015.8
20260502121834 80 11 1.0 6.0 0.00 0.01 0.00 81 1015.8
20260502121329 80 320 2.0 6.0 0.00 0.01 0.00 82 1015.7
20260502120828 79 359 0.0 5.0 0.00 0.01 0.00 82 1015.6
20260502120334 79 18 0.0 5.0 0.00 0.01 0.00 83 1015.7
20260502115830 79 354 0.0 4.0 0.00 0.01 0.00 83 1015.6
20260502115326 78 36 0.0 3.0 0.00 0.01 0.00 83 1015.6
20260502114833 78 13 0.0 3.0 0.00 0.01 0.00 84 1015.6
20260502114328 78 3 0.0 1.0 0.00 0.01 0.00 85 1015.6
20260502113833 77 18 0.0 2.0 0.00 0.01 0.00 85 1015.6
20260502113328 77 7 0.0 1.0 0.00 0.01 0.00 85 1015.7
20260502112834 77 18 0.0 1.0 0.00 0.01 0.00 86 1015.5
20260502112330 76 67 0.0 1.0 0.00 0.01 0.00 87 1015.5
20260502111826 76 339 0.0 2.0 0.00 0.01 0.00 88 1015.4
20260502111333 76 342 0.0 2.0 0.00 0.01 0.00 88 1015.3
20260502110829 75 20 0.0 0.0 0.00 0.01 0.00 88 1015.2
20260502110334 75 349 0.0 3.0 0.00 0.01 0.00 88 1015.2
20260502105830 75 23 0.0 4.0 0.00 0.01 0.00 88 1015.0
20260502105326 75 37 0.0 4.0 0.00 0.01 0.00 88 1014.9
20260502104908 0 0.0 0.0 0.00 0.01 0.00 1014.9
20260502104329 0 0.0 0.0 0.00 0.01 0.00 1014.9
20260502103833 0 0.0 0.0 0.00 0.01 0.00 1014.8
20260502103339 0 0.0 0.0 0.00 0.01 0.00 1014.8
20260502102419 0 0.0 0.0 0.00 0.01 0.00 1014.7
20260502101841 0 0.0 0.0 0.00 0.01 0.00 1014.7
20260502101343 0 0.0 0.0 0.00 0.01 0.00 1014.7
20260502100827 0 0.0 0.0 0.00 0.01 0.00 1014.6
20260502100413 0 0.0 0.0 0.00 0.01 0.00 1014.6
20260502091405 0 0.0 0.0 0.00 0.01 0.00 1014.2
20260502090908 0 0.0 0.0 0.00 0.01 0.00 1014.1
20260502090336 0 0.0 0.0 0.00 0.01 0.00 1014.1
20260502071326 0 0.0 0.0 0.00 0.01 0.00 1013.7
20260502070911 0 0.0 0.0 0.00 0.01 0.00 1013.7
20260502070401 0 0.0 0.0 0.00 0.01 0.00 1013.7
20260502065831 0 0.0 0.0 0.00 0.01 0.00 1013.7
20260502065336 0 0.0 0.0 0.00 0.01 0.00 1013.7
20260502064840 0 0.0 0.0 0.00 0.01 0.00 1013.6
20260502064404 0 0.0 0.0 0.00 0.01 0.00 1013.7
20260502063906 0 0.0 0.0 0.00 0.01 0.00 1013.7
20260502063334 0 0.0 0.0 0.00 0.01 0.00 1013.7
20260502062829 0 0.0 0.0 0.00 0.01 0.00 1013.7
20260502062333 0 0.0 0.0 0.00 0.01 0.01 1013.7
20260502061905 0 0.0 0.0 0.00 0.01 0.01 1013.8
20260502061415 0 0.0 0.0 0.00 0.01 0.01 1013.9
20260502060838 0 0.0 0.0 0.00 0.01 0.01 1013.9
20260502060343 0 0.0 0.0 0.00 0.01 0.01 1014.0
20260502055828 0 0.0 0.0 0.00 0.01 0.01 1014.0
20260502055413 0 0.0 0.0 0.00 0.01 0.01 1014.1
20260502054329 0 0.0 0.0 0.00 0.01 0.01 1014.1
20260502053833 0 0.0 0.0 0.00 0.01 0.01 1014.1
20260502053337 0 0.0 0.0 0.00 0.01 0.01 1014.2
20260502052903 0 0.0 0.0 0.00 0.01 0.01 1014.3
20260502052414 0 0.0 0.0 0.00 0.01 0.01 1014.4
20260502051835 0 0.0 0.0 0.00 0.01 0.01 1014.4
20260502051340 0 0.0 0.0 0.00 0.01 0.01 1014.5
20260502050843 0 0.0 0.0 0.00 0.01 0.01 1014.6
20260502050409 0 0.0 0.0 0.00 0.01 0.01 1014.6
20260502045913 0 0.0 0.0 0.00 0.01 0.01 1014.7
20260502045340 0 0.0 0.0 0.00 0.01 0.01 1014.7
20260502044846 0 0.0 0.0 0.00 0.01 0.01 1014.7